User: anonymous   Login
Location: Ch?enovice
(49.7164°N, 15.2160°E)
Time: 12:32:49
(UTC+00:00)
Language:

Cosmos 1814 Rocket - Orbit

View from above orbital plane
View from above orbital plane
View from above satellite
View from above satellite

Ground track
Ground track

The orbit data is extracted from the following two-line orbital elements,

1 17304U 87006B   24205.70752074  .00000814  00000-0  27386-3 0  9993
2 17304  74.0594   2.1153 0030199 271.2885  88.4809 14.38451244965826
Epoch (UTC): 23 July 2024 16:58:49
Eccentricity: 0.0030199
inclination: 74.0594°
perigee height: 742 km
apogee height: 785 km
right ascension of ascending node: 2.1153°
argument of perigee: 271.2885°
revolutions per day: 14.38451244
mean anomaly at epoch: 88.4809°
orbit number at epoch: 96582

The dashed part of the orbit path shows where the satellite is in the earth's shadow,  

DLR